Flag for USA

Past Weather in South Bend, Indiana, USA — Yesterday and Last 2 Weeks

Now
87 °F

Sunny.


Feels Like: 88 °F
Forecast: 87 / 61 °F
Wind: 7 mph from Northeast

Location: Michiana Regional Airport
Current Time: Aug 14, 2020 at 2:19:46 pm
Latest Report: Aug 14, 2020 at 1:54 pm
Visibility: 10 mi
Pressure29.99 "Hg
Humidity: 43%
Dew Point: 62 °F
Location of South BendLocation

Past Weather in South Bend — Graph

°F

South Bend Temperature Yesterday

Maximum temperature yesterday: 86 °F (at 2:54 pm)
Minimum temperature yesterday: 59 °F (at 4:54 am)
Average temperature yesterday: 73 °F

High & Low Weather Summary for the Past Weeks

 TemperatureHumidityPressure
High89 °F (Aug 9, 3:54 pm)100% (Aug 1, 9:30 pm)30.20 "Hg (Aug 1, 9:30 pm)
Low51 °F (Aug 5, 5:54 am)37% (Aug 5, 4:54 pm)29.77 "Hg (Aug 2, 3:54 am)
Average71 °F71%30.01 "Hg
* Reported Jul 30 12:54 pm — Aug 14 12:54 pm, South Bend. Weather by CustomWeather, © 2020

Note: Actual official high and low records may vary slightly from our data, if they occured in-between our weather recording intervals... More about our weather records

South Bend Weather History for the Previous 24 Hours

Scroll right to see more
 ConditionsComfort  
Time TempWeatherWind HumidityBarometerVisibility
12:54 pm
Fri, Aug 14
87 °FSunny.10 mph43%29.98 "Hg10 mi
11:54 am83 °FSunny.9 mph50%30.01 "Hg10 mi
10:54 am81 °FSunny.5 mph53%30.02 "Hg10 mi
9:54 am77 °FSunny.5 mph60%30.03 "Hg10 mi
8:54 am73 °FSunny.3 mph66%30.04 "Hg10 mi
7:54 am66 °FSunny.No wind81%30.03 "Hg10 mi
6:54 am62 °FSunny.No wind86%30.03 "Hg10 mi
5:54 am61 °FClear.3 mph87%30.02 "Hg10 mi
4:54 am63 °FClear.No wind84%30.02 "Hg10 mi
3:54 am63 °FClear.3 mph84%30.03 "Hg10 mi
2:54 am64 °FClear.5 mph84%30.03 "Hg10 mi
1:54 am66 °FClear.No wind78%30.04 "Hg10 mi
12:54 am68 °FClear.No wind76%30.04 "Hg10 mi
11:54 pm
Thu, Aug 13
69 °FClear.No wind76%30.06 "Hg10 mi
10:54 pm69 °FClear.5 mph76%30.06 "Hg10 mi
9:54 pm74 °FClear.3 mph64%30.06 "Hg10 mi
8:54 pm78 °FClear.5 mph56%30.05 "Hg10 mi
7:54 pm82 °FSunny.5 mph48%30.04 "Hg10 mi
6:54 pm84 °FSunny.9 mph43%30.04 "Hg10 mi
5:54 pm85 °FSunny.7 mph40%30.03 "Hg10 mi
4:54 pm86 °FSunny.6 mph39%30.03 "Hg10 mi
3:54 pm85 °FSunny.3 mph40%30.05 "Hg10 mi
2:54 pm86 °FSunny.10 mph39%30.08 "Hg10 mi
Weather by CustomWeather, © 2020

See weather overview